Weather History for MMTO - March, 2013

Change the Weather History Date:

Friday, March 22, 2013

  Actual Average Record
Temperature  
Mean Temperature 58 °F -  
Max Temperature 73 °F 71 °F 80 °F (2014)
Min Temperature 42 °F 37 °F 30 °F (2003)
Degree Days  
Heating Degree Days 8    
Growing Degree Days 8 (Base 50)    
Moisture  
Dew Point 25 °F    
Average Humidity 32    
Maximum Humidity 53    
Minimum Humidity 10    
Precipitation  
Precipitation 0.00 in - - ()
Sea Level Pressure  
Sea Level Pressure 30.11 in    
Wind  
Wind Speed 6 mph ()    
Max Wind Speed 24 mph    
Max Gust Speed -    
Visibility 8.2 miles    
Events      
Averages and records for this station are not official NWS values.
T = Trace of Precipitation, MM = Missing Value Source: Averaged Metar Reports

Daily Weather History Graph

Daily Weather History Graph

Search for Another Location

Airport or City:

Trip Planner

Search our weather history database for the weather conditions in past years. The results will help you decide how hot, cold, wet, or windy it might be!

Date:

Astronomy

Mar. 22, 2013 Rise Set
Actual Time 6:40 AM CST 6:49 PM CST
Civil Twilight 6:18 AM CST 7:11 PM CST
Nautical Twilight 5:52 AM CST 7:37 PM CST
Astronomical Twilight 5:27 AM CST 8:02 PM CST
Moon 2:49 PM CST (3/22) 3:08 AM CST (3/22)
Length of Visible Light 12h 53m
Length of Day
12h 09m
Waxing Gibbous, 78% of the Moon is Illuminated
Mar 22
Waxing Gibbous
Mar 27
Full
Apr 2
Last Quarter
Apr 10
New
Apr 18
First Quarter

Hourly Weather History & Observations

Time (CST) Temp. Windchill Dew Point Humidity Pressure Visibility Wind Dir Wind Speed Gust Speed Precip Events Conditions
12:45 AM 50.0 °F - 26.6 °F 40% 30.30 in 7.0 mi Calm Calm - N/A   Scattered Clouds
1:45 AM 48.2 °F - 26.6 °F 43% 30.29 in 7.0 mi Calm Calm - N/A   Scattered Clouds
2:45 AM 48.2 °F - 26.6 °F 43% 29.70 in 7.0 mi Calm Calm - N/A   Scattered Clouds
3:45 AM 44.6 °F - 28.4 °F 53% 30.26 in 7.0 mi Calm Calm - N/A   Scattered Clouds
4:45 AM 44.6 °F - 28.4 °F 53% 30.26 in 7.0 mi Calm Calm - N/A   Scattered Clouds
5:45 AM 44.6 °F 43.1 °F 28.4 °F 53% 29.76 in 7.0 mi ENE 3.5 mph - N/A   Scattered Clouds
6:45 AM 42.8 °F - 26.6 °F 53% 30.30 in 8.0 mi Calm Calm - N/A   Scattered Clouds
7:42 AM 50.0 °F - 26.6 °F 40% 30.34 in 8.0 mi NNW 3.5 mph - N/A   Mostly Cloudy
8:50 AM 59.0 °F - 28.4 °F 31% 29.77 in 8.0 mi North 12.7 mph - N/A   Mostly Cloudy
9:42 AM 62.6 °F - 28.4 °F 27% 30.34 in 8.0 mi WNW 9.2 mph - N/A   Mostly Cloudy
10:41 AM 68.0 °F - 30.2 °F 24% 30.33 in 10.0 mi WNW 12.7 mph - N/A   Mostly Cloudy
11:45 AM 71.6 °F - 26.6 °F 19% 29.71 in 10.0 mi West 11.5 mph - N/A   Scattered Clouds
12:42 PM 73.4 °F - 14.0 °F 10% 30.28 in 10.0 mi West 24.2 mph - N/A   Scattered Clouds
1:41 PM 73.4 °F - 17.6 °F 12% 30.27 in 10.0 mi West 23.0 mph - N/A   Scattered Clouds
2:45 PM 71.6 °F - 17.6 °F 13% 29.69 in 10.0 mi WSW 18.4 mph - N/A   Scattered Clouds
3:45 PM 71.6 °F - 15.8 °F 12% 30.25 in 8.0 mi West 21.9 mph - N/A   Scattered Clouds
4:42 PM 69.8 °F - 17.6 °F 14% 30.27 in 8.0 mi WSW 15.0 mph - N/A   Scattered Clouds
5:40 PM 68.0 °F - 21.2 °F 17% 29.75 in 10.0 mi West 12.7 mph - N/A   Scattered Clouds
6:44 PM 64.4 °F - 23.0 °F 21% 30.29 in 10.0 mi West 17.3 mph - N/A   Partly Cloudy
7:44 PM 60.8 °F - 26.6 °F 27% 30.31 in 8.0 mi WSW 10.4 mph - N/A   Scattered Clouds
8:43 PM 59.0 °F - 28.4 °F 31% 29.76 in 8.0 mi SW 5.8 mph - N/A   Scattered Clouds
9:45 PM 53.6 °F - 28.4 °F 38% 30.36 in 7.0 mi Calm Calm - N/A   Scattered Clouds
10:45 PM 50.0 °F - 28.4 °F 43% 30.37 in 7.0 mi NNW 3.5 mph - N/A   Scattered Clouds
11:45 PM 46.4 °F 45.2 °F 30.2 °F 53% 29.80 in 6.0 mi NNE 3.5 mph - N/A   Partly Cloudy